Regional Weather Roundup
Issued by NWS

Home | Current Version | Previous Version | Graphics & Text | Print | Product List | Glossary On
Versions: 1 2 3 4 5 6 7 8 9 10 11 12 13 14 15 16 17 18 19 20 21 22 23 24 25 26 27 28 29 30 31 32 33 34 35 36 37 38 39 40 41 42 43 44 45 46 47 48 49 50
000
ASUS45 KABQ 311210
RWRNM
NEW MEXICO REGIONAL WEATHER ROUNDUP
NATIONAL WEATHER SERVICE ALBUQUERQUE NM
600 AM MDT TUE MAY 31 2016

NOTE: "FAIR" MEANS FEW OR NO CLOUDS BELOW 12,000 FEET AGL WITH NO
       SIGNIFICANT WEATHER OR OBSTRUCTIONS TO VISION.

      THIS PRODUCT IS RELEASED AS TWO VERSIONS.  ONE VERSION NEAR
      THE TOP OF THE HOUR CONTAINING PRELIMINARY DATA FROM ALBUQUERQUE
      AND OTHER STATIONS.  A FINAL VERSION WITH ADDITIONAL DATA IS
      ISSUED ABOUT 10 MINUTES AFTER THE HOUR.

NMZ501-503-504-510>518-311300-
NORTHWEST PLATEAU/NORTHCENTRAL MOUNTAINS

CITY           SKY/WX    TMP DP  RH WIND       PRES   REMARKS
FARMINGTON     FAIR      44  23  43 NE7       30.02R
6HR MIN TEMP:  43; 6HR MAX TEMP:  60;

LOS ALAMOS     FAIR      58  26  29 N15G21    30.11R
SANTA FE       FAIR      50  27  40 N7        30.07R
6HR MIN TEMP:  50; 6HR MAX TEMP:  63;

TAOS           FAIR      39  21  48 N6        30.12S WCI  35
ANGEL FIRE     FAIR      29  25  84 SE5       30.20F WCI  24

$$
NMZ402-403-502-505>509-311300-
WESTCENTRAL MOUNTAINS/SOUTHWEST MOUNTAINS

CITY           SKY/WX    TMP DP  RH WIND       PRES   REMARKS
GALLUP         FAIR      40  25  55 E3        30.08R
6HR MIN TEMP:  38; 6HR MAX TEMP:  50;

GRANTS         FAIR      39  23  52 CALM      30.09S
SILVER CITY      N/A     46  39  76 NE7       30.05S

$$
NMZ407-409-411-412-311300-
SOUTHERN DESERTS

CITY           SKY/WX    TMP DP  RH WIND       PRES   REMARKS
LORDSBURG      FAIR      54  48  82 S7        29.96F
DEMING         FAIR      56  51  84 CALM      29.98S
6HR MIN TEMP:  55; 6HR MAX TEMP:  66; 6HR PCP: TRACE;

LAS CRUCES     FAIR      57  54  89 S3        29.99S
HOLLOMAN AFB   FAIR      62  50  66 S10       29.97R
ALAMOGORDO     FAIR      59  46  63 S7        29.99R
T OR C         FAIR      59  48  67 S5        29.99R
6HR MIN TEMP:  57; 6HR MAX TEMP:  68;


$$
NMZ519>523-311300-
CENTRAL VALLEYS/CENTRAL HIGHLANDS

CITY           SKY/WX    TMP DP  RH WIND       PRES   REMARKS
ALBUQUERQUE    FAIR      63  39  41 E3        30.01S
6HR MIN TEMP:  61; 6HR MAX TEMP:  70;

DOUBLE EAGLE   PTCLDY    54  36  50 E7        30.04R
MORIARTY ARPT  CLOUDY    55  36  49 SE6       30.09R
6HR MIN TEMP:  52; 6HR MAX TEMP:  59;

CLINES CORNERS MOCLDY    53  35  50 SE6       30.11R
6HR MIN TEMP:  53; 6HR MAX TEMP:  58;

BELEN          FAIR      55  41  59 E6        30.01R
6HR MIN TEMP:  55; 6HR MAX TEMP:  70;

SOCORRO        FAIR      54  43  65 SW7       30.00R
6HR MIN TEMP:  54; 6HR MAX TEMP:  69;


$$
NMZ524>526-539-540-311300-
SOUTHCENTRAL MOUNTAINS

CITY           SKY/WX    TMP DP  RH WIND       PRES   REMARKS
RUIDOSO          N/A     48  39  71 CALM      30.11S

$$
NMZ527>531-311300-
NORTHEAST HIGHLANDS/NORTHEAST PLAINS

CITY           SKY/WX    TMP DP  RH WIND       PRES   REMARKS
LAS VEGAS      FAIR      47  33  58 N13       30.11R
6HR MIN TEMP:  47; 6HR MAX TEMP:  54;

RATON          FAIR      49  38  65 NE6       30.10R
6HR MIN TEMP:  49; 6HR MAX TEMP:  58;

CLAYTON        FAIR      52  46  80 SW6       30.02S
6HR MIN TEMP:  47; 6HR MAX TEMP:  59;


$$
NMZ532>537-311300-
EASTCENTRAL PLAINS

CITY           SKY/WX    TMP DP  RH WIND       PRES   REMARKS
TUCUMCARI      FAIR      56  49  77 N7        29.96R
6HR MIN TEMP:  56; 6HR MAX TEMP:  67;

CANNON AFB     FAIR      58  54  88 S3        29.96F
6HR MIN TEMP:  56; 6HR MAX TEMP:  65;

CLOVIS AIRPORT FAIR      55  48  76 NW3       29.96S

$$
NMZ028-029-538-311300-
SOUTHEAST PLAINS

CITY           SKY/WX    TMP DP  RH WIND       PRES   REMARKS
ROSWELL        FAIR      58  51  78 S6        29.92F
6HR MIN TEMP:  57; 6HR MAX TEMP:  64;

ARTESIA        FAIR      59  59 100 NE3       29.94S
CARLSBAD       FAIR      61  58  90 NW10      29.91R
6HR MIN TEMP:  60; 6HR MAX TEMP:  64; 6HR PCP: TRACE;

HOBBS          CLEAR     57  57 100 S6        29.96R


$$




USA.gov is the U.S. government's official web portal to all federal, state and local government web resources and services.